"Pseudo-MPEC" for P222BEk

Created 2024 Dec 1 7:31:17 UT using Find_Orb

Click here for an explanation of pseudo-MPECs

 
 Astrometry: 
     P222BEk* C2024 11 28.45942805 20 15.218+07 18 18.49   ~BSHl 22.45wXNEOCPF52
     P222BEk  C2024 11 28.47107905 20 17.459+07 18 02.70   ~BSHl 22.26wXNEOCPF52
     P222BEk  C2024 11 28.49447905 20 21.970+07 17 30.63   ~BSHl 22.48wXNEOCPF52
     P222BEk 3C2024 11 29.56939205 24 19.194+06 53 27.03   ~BTLl 22.24GVNEOCPT14
     P222BEk 3C2024 11 29.57037005 24 19.383+06 53 25.75   ~BTLl 22.30GVNEOCPT14
     P222BEk 3C2024 11 29.57135205 24 19.575+06 53 24.42   ~BTLl 22.32GVNEOCPT14
     P222BEk 3C2024 11 29.57232905 24 19.770+06 53 23.08   ~BTLl 22.21GVNEOCPT14

Station data:
(F52) Pan-STARRS 2, Haleakala  (N20.707382 W156.255910)  US/Hawaii.
   Observers J. Bulger, T. Dukes, T. Lowe, A. Schultz, M. Willman. Measurers
   K. Chambers, S. Chastel, T. de Boer, L. Denneau, J. Fairlamb, H.
   Flewelling, M. Huber, C.-C. Lin, E. Magnier, Y. Ramanjooloo, R. Wainscoat,
   R. Weryk. 1.8-m Ritchey-Chrétien + CCD.
(T14) Mauna Kea-UH/Tholen NEO Follow-Up (CFHT)  (N19.825252 W155.468876)
   US/Hawaii.  Observer R. Weryk. 3.6-m Canada-France-Hawaii Telescope.

Orbital elements:  P222BEk
   Perihelion 2024 Dec 1.73405 +/- 4.95 TT = 17:37:02 (JD 2460646.23405)
Epoch 2024 Nov 29.0 TT = JDT 2460643.5   Earth MOID: 0.1060   Ma: 0.0875
M 358.72920406 +/- 2.3              (J2000 ecliptic)             AutoNEOCP
n   0.46480287 +/- 0.00769          Peri.  215.18206 +/- 8
a   1.65053033 +/- 0.0182           Node   215.77772 +/- 3.2
e   0.3407251 +/- 0.00627           Incl.    2.94056 +/- 0.19
P   2.120/774.507d         H 26.11  G  0.15   U  9.5
q 1.08815307 +/- 0.00263    Q 2.21290759 +/- 0.0346
From 7 observations 2024 Nov. 28-29 (26.7 hr); mean residual 0".03
Residuals in arcseconds: 
241128 F52  .02+  .02-    241129 T14  .01+  .04-    241129 T14  .04+  .01+    
241128 F52  .03-  .05+    241129 T14  .02-  .01+    
241128 F52  .00   .03-    241129 T14  .02-  .02+    

Ephemerides (geocentric):
Date (UTC) HH   RA             Dec           delta  r     elong  mag " sig PA
---- --------  ------------   ------------  ------ ------ -----  --- --------
2024 12 01 08  05 30 46.326   +06 15 52.60  .10884 1.0882 158.7 22.5 59.7 114
2024 12 01 09  05 30 55.255   +06 15 00.40  .10886 1.0882 158.6 22.5 62.1 114
2024 12 01 10  05 31 04.178   +06 14 08.28  .10887 1.0882 158.6 22.5 64.5 114
2024 12 01 11  05 31 13.094   +06 13 16.23  .10888 1.0882 158.6 22.5 66.9 114
2024 12 01 12  05 31 22.003   +06 12 24.25  .10889 1.0882 158.6 22.5 69.4 114
2024 12 01 13  05 31 30.906   +06 11 32.35  .10891 1.0882 158.6 22.5 71.9 114
2024 12 01 14  05 31 39.801   +06 10 40.53  .10892 1.0882 158.6 22.5 74.5 114
2024 12 01 15  05 31 48.690   +06 09 48.77  .10893 1.0882 158.6 22.5 77.1 114
2024 12 01 16  05 31 57.572   +06 08 57.10  .10895 1.0882 158.6 22.5 79.7 114
2024 12 01 17  05 32 06.447   +06 08 05.50  .10896 1.0882 158.6 22.5 82.4 114
2024 12 01 18  05 32 15.315   +06 07 13.98  .10897 1.0882 158.6 22.5 85.2 114
2024 12 01 19  05 32 24.176   +06 06 22.53  .10899 1.0882 158.5 22.5 87.9 114
2024 12 01 20  05 32 33.030   +06 05 31.16  .10900 1.0882 158.5 22.5 90.8 114
2024 12 01 21  05 32 41.878   +06 04 39.87  .10902 1.0882 158.5 22.5 93.6 114
2024 12 01 22  05 32 50.718   +06 03 48.65  .10903 1.0882 158.5 22.5 96.5 114
2024 12 01 23  05 32 59.552   +06 02 57.51  .10904 1.0882 158.5 22.5   99 114
2024 12 02 00  05 33 08.378   +06 02 06.45  .10906 1.0882 158.5 22.5  102 114
2024 12 02 01  05 33 17.198   +06 01 15.46  .10907 1.0882 158.5 22.5  105 114
2024 12 02 02  05 33 26.011   +06 00 24.55  .10909 1.0882 158.5 22.5  109 113
2024 12 02 03  05 33 34.816   +05 59 33.72  .10910 1.0882 158.5 22.5  112 113
2024 12 02 04  05 33 43.615   +05 58 42.97  .10912 1.0882 158.5 22.5  115 113
2024 12 02 05  05 33 52.407   +05 57 52.30  .10913 1.0882 158.4 22.5  118 113
2024 12 02 06  05 34 01.191   +05 57 01.71  .10915 1.0882 158.4 22.5  121 113
2024 12 02 07  05 34 09.969   +05 56 11.19  .10916 1.0882 158.4 22.5  124 113
2024 12 02 08  05 34 18.740   +05 55 20.76  .10918 1.0882 158.4 22.5  128 113
2024 12 02 09  05 34 27.503   +05 54 30.40  .10919 1.0882 158.4 22.5  131 113
2024 12 02 10  05 34 36.260   +05 53 40.13  .10921 1.0882 158.4 22.5  134 113
2024 12 02 11  05 34 45.009   +05 52 49.93  .10923 1.0882 158.4 22.5  138 113
2024 12 02 12  05 34 53.752   +05 51 59.81  .10924 1.0882 158.4 22.5  141 113
2024 12 02 13  05 35 02.487   +05 51 09.78  .10926 1.0882 158.4 22.5  145 113
2024 12 02 14  05 35 11.215   +05 50 19.82  .10928 1.0882 158.4 22.5  148 113
2024 12 02 15  05 35 19.936   +05 49 29.94  .10929 1.0882 158.4 22.5  152 113
2024 12 02 16  05 35 28.650   +05 48 40.15  .10931 1.0882 158.3 22.5  156 113
2024 12 02 17  05 35 37.357   +05 47 50.44  .10932 1.0882 158.3 22.5  159 113
2024 12 02 18  05 35 46.056   +05 47 00.81  .10934 1.0882 158.3 22.5  163 113
2024 12 02 19  05 35 54.749   +05 46 11.26  .10936 1.0882 158.3 22.5  167 113
2024 12 02 20  05 36 03.434   +05 45 21.79  .10938 1.0882 158.3 22.5  171 113
2024 12 02 21  05 36 12.112   +05 44 32.40  .10939 1.0882 158.3 22.5  174 113
2024 12 02 22  05 36 20.783   +05 43 43.10  .10941 1.0882 158.3 22.5  178 113
2024 12 02 23  05 36 29.447   +05 42 53.87  .10943 1.0882 158.3 22.5  182 113
2024 12 03 00  05 36 38.103   +05 42 04.73  .10945 1.0882 158.3 22.5  186 113
2024 12 03 01  05 36 46.753   +05 41 15.68  .10946 1.0882 158.3 22.5  190 113
2024 12 03 02  05 36 55.395   +05 40 26.70  .10948 1.0882 158.3 22.5  194 113
2024 12 03 03  05 37 04.029   +05 39 37.81  .10950 1.0882 158.2 22.5  198 113
2024 12 03 04  05 37 12.657   +05 38 49.01  .10952 1.0882 158.2 22.5  202 113
2024 12 03 05  05 37 21.277   +05 38 00.28  .10954 1.0882 158.2 22.5  206 113
2024 12 03 06  05 37 29.890   +05 37 11.64  .10955 1.0883 158.2 22.5  211 113
2024 12 03 07  05 37 38.496   +05 36 23.09  .10957 1.0883 158.2 22.5  215 113